Pine Ridge, SD

3:34 PM MDT on June 25, 2017 (GMT -0600)
Pine Ridge

Weather History for KIEN - December, 2012

Change the Weather History Date:

Thursday, December 27, 2012

  Actual Average Record
Temperature  
Mean Temperature 6 °F 22 °F  
Max Temperature 16 °F 36 °F 51 °F (2005)
Min Temperature -5 °F 9 °F -15 °F (2015)
Degree Days  
Heating Degree Days 59 43  
Month to date heating degree days 1003 1131  
Since 1 July heating degree days 2591 2821  
Cooling Degree Days 0 0  
Month to date cooling degree days 0 0  
Year to date cooling degree days 1103 717  
Moisture  
Dew Point 7 °F    
Average Humidity 82    
Maximum Humidity 91    
Minimum Humidity 73    
Precipitation  
Precipitation T in 0.01 in 0.00 in (2017)
Month to date precipitation 0.08 0.30  
Year to date precipitation 11.11 17.47  
Sea Level Pressure  
Sea Level Pressure 29.91 in    
Wind  
Wind Speed 5 mph (WNW)    
Max Wind Speed 15 mph    
Max Gust Speed 20 mph    
Visibility 5 miles    
Events Fog , Snow    
T = Trace of Precipitation, MM = Missing Value Source: NWS Daily Summary

Daily Weather History Graph

Daily Weather History Graph

Search for Another Location

Airport or City:

Trip Planner

Search our weather history database for the weather conditions in past years. The results will help you decide how hot, cold, wet, or windy it might be!

Date:

Astronomy

Dec. 27, 2012 Rise Set
Actual Time 7:20 AM MST 4:22 PM MST
Civil Twilight 6:48 AM MST 4:54 PM MST
Nautical Twilight 6:12 AM MST 5:30 PM MST
Astronomical Twilight 5:37 AM MST 6:05 PM MST
Moon 4:08 PM MST (12/27) 6:32 AM MST (12/27)
Length of Visible Light 10h 06m
Length of Day
9h 01m
Full, 100% of the Moon is Illuminated
Dec 27
Full
Dec 28
Full
Jan 4
Last Quarter
Jan 11
New
Jan 18
First Quarter

Hourly Weather History & Observations

Time (MST) Temp. Windchill Dew Point Humidity Pressure Visibility Wind Dir Wind Speed Gust Speed Precip Events Conditions
12:52 AM 14.0 °F 1.2 °F 7.0 °F 74% 29.91 in 10.0 mi South 10.4 mph - 0.00 in   Overcast
1:52 AM 14.0 °F 2.0 °F 6.1 °F 71% 29.91 in 10.0 mi South 9.2 mph - N/A   Overcast
2:52 AM 14.0 °F - 6.1 °F 71% 29.90 in 10.0 mi Calm Calm - N/A   Overcast
3:04 AM 14.0 °F 8.2 °F 6.8 °F 73% 29.76 in 10.0 mi South 3.5 mph - N/A   Overcast
3:52 AM 12.9 °F 2.6 °F 6.1 °F 74% 29.90 in 10.0 mi South 6.9 mph - N/A   Overcast
4:52 AM 12.9 °F 3.8 °F 7.0 °F 77% 29.89 in 9.0 mi South 5.8 mph - 0.00 in Snow Light Snow
5:52 AM 12.9 °F 6.9 °F 7.0 °F 77% 29.90 in 6.0 mi SE 3.5 mph - 0.00 in Snow Light Snow
6:20 AM 12.2 °F 6.1 °F 6.8 °F 79% 29.75 in 5.0 mi SE 3.5 mph - 0.00 in Snow Light Snow
6:44 AM 12.2 °F - 6.8 °F 79% 29.76 in 6.0 mi Calm Calm - 0.00 in Snow Light Snow
6:52 AM 12.9 °F 6.9 °F 7.0 °F 77% 29.92 in 5.0 mi SSE 3.5 mph - 0.00 in Snow Light Snow
7:24 AM 12.2 °F - 6.8 °F 79% 29.77 in 2.5 mi Calm Calm - 0.00 in Snow Light Snow
7:34 AM 12.2 °F 6.1 °F 8.6 °F 85% 29.78 in 1.0 mi ESE 3.5 mph - 0.00 in Snow Light Snow
7:40 AM 12.2 °F 6.1 °F 8.6 °F 85% 29.78 in 0.8 mi SE 3.5 mph - 0.00 in Snow Light Snow
7:52 AM 12.9 °F - 9.0 °F 84% 29.94 in 0.5 mi Calm Calm - 0.00 in Fog , Snow Snow
8:25 AM 12.2 °F 4.3 °F 8.6 °F 85% 29.79 in 1.0 mi East 4.6 mph - 0.00 in Snow Light Snow
8:52 AM 12.9 °F 6.9 °F 8.1 °F 81% 29.96 in 2.5 mi SE 3.5 mph - 0.00 in Snow Light Snow
9:01 AM 12.2 °F 6.1 °F 8.6 °F 85% 29.81 in 3.0 mi South 3.5 mph - 0.00 in Snow Light Snow
9:52 AM 14.0 °F 8.2 °F 8.1 °F 77% 29.97 in 3.0 mi SSW 3.5 mph - 0.00 in Snow Light Snow
10:07 AM 14.0 °F - 8.6 °F 79% 29.82 in 4.0 mi Calm Calm - 0.00 in Snow Light Snow
10:52 AM 15.1 °F - 10.0 °F 80% 29.97 in 1.8 mi Calm Calm - 0.00 in Snow Light Snow
11:03 AM 15.8 °F - 10.4 °F 79% 29.81 in 2.0 mi Calm Calm - 0.00 in Snow Light Snow
11:19 AM 15.8 °F 10.2 °F 10.4 °F 79% 29.80 in 1.8 mi WNW 3.5 mph - 0.00 in Snow Light Snow
11:52 AM 15.1 °F 6.4 °F 10.0 °F 80% 29.96 in 1.0 mi NW 5.8 mph - 0.00 in Snow Light Snow
12:00 PM 15.8 °F 6.1 °F 10.4 °F 79% 29.79 in 0.8 mi NW 6.9 mph - 0.00 in Snow Light Snow
12:22 PM 15.8 °F 4.2 °F 10.4 °F 79% 29.79 in 1.2 mi NW 9.2 mph - 0.00 in Snow Light Snow
12:38 PM 14.0 °F -0.2 °F 10.4 °F 86% 29.79 in 0.8 mi NW 12.7 mph - 0.00 in Snow Light Snow
12:52 PM 14.0 °F -0.2 °F 9.0 °F 80% 29.96 in 0.8 mi NW 12.7 mph - 0.00 in Snow Light Snow
1:10 PM 14.0 °F 2.0 °F 10.4 °F 86% 29.80 in 1.2 mi NW 9.2 mph - 0.00 in Snow Light Snow
1:25 PM 15.8 °F 3.4 °F 8.6 °F 73% 29.80 in 2.0 mi NNW 10.4 mph - 0.00 in Snow Light Snow
1:45 PM 14.0 °F 2.9 °F 8.6 °F 79% 29.81 in 3.0 mi NNW 8.1 mph - 0.00 in Snow Light Snow
1:52 PM 14.0 °F 2.0 °F 9.0 °F 80% 29.97 in 3.0 mi NNW 9.2 mph - 0.00 in Snow Light Snow
2:52 PM 12.9 °F 2.6 °F 8.1 °F 81% 30.00 in 4.0 mi NNW 6.9 mph - 0.00 in Snow Light Snow
3:52 PM 10.9 °F -0.8 °F 6.1 °F 81% 30.03 in 5.0 mi NNW 8.1 mph - 0.00 in Snow Light Snow
4:00 PM 10.4 °F -0.4 °F 5.0 °F 79% 29.86 in 6.0 mi NNW 6.9 mph - 0.00 in   Haze
4:13 PM 8.6 °F 0.1 °F 3.2 °F 79% 29.87 in 10.0 mi NW 4.6 mph - 0.00 in   Overcast
4:36 PM 8.6 °F -2.6 °F 5.0 °F 85% 29.87 in 7.0 mi NNW 6.9 mph - 0.00 in   Overcast
4:44 PM 10.4 °F -0.4 °F 6.8 °F 85% 29.88 in 7.0 mi NNW 6.9 mph - 0.00 in Snow Light Snow
4:52 PM 10.0 °F -0.9 °F 6.1 °F 84% 30.05 in 6.0 mi NNW 6.9 mph - 0.00 in Snow Light Snow
5:52 PM 10.9 °F 0.2 °F 7.0 °F 84% 30.08 in 6.0 mi North 6.9 mph - 0.00 in Snow Light Snow
6:52 PM 10.9 °F 1.4 °F 7.0 °F 84% 30.09 in 5.0 mi NW 5.8 mph - 0.00 in Snow Light Snow
7:52 PM 10.9 °F 1.4 °F 7.0 °F 84% 30.11 in 5.0 mi NW 5.8 mph - 0.00 in Snow Light Snow
8:52 PM 9.0 °F 2.4 °F 6.1 °F 88% 30.12 in 7.0 mi NW 3.5 mph - 0.00 in Snow Light Snow
9:52 PM 7.0 °F 0.1 °F 3.9 °F 87% 30.13 in 4.0 mi WNW 3.5 mph - 0.00 in Snow Light Snow
10:52 PM 5.0 °F -5.6 °F 1.0 °F 84% 30.15 in 9.0 mi West 5.8 mph - 0.00 in Snow Light Snow
11:52 PM -2.9 °F -13.3 °F -7.1 °F 82% 30.16 in 10.0 mi SW 4.6 mph - 0.00 in   Clear